This is the latest recevied weather packets stored in our database for station/object AE5EW. If no packets are shown the sender has not sent any weather packets the latest 10 day(s).
| Time | Temp. | Humidity | Pressure | Rain* | Wind** | Luminosity | Snow |
|---|---|---|---|---|---|---|---|
| 1787594498 | 32.78° C | 67% | 1017.4 hPa | 0 mm | - | - | - |
| 1787594197 | 32.78° C | 63% | 1017.5 hPa | 0 mm | - | - | - |
| 1787593892 | 32.78° C | 63% | 1017.4 hPa | 0 mm | - | - | - |
| 1787593588 | 33.89° C | 59% | 1017.4 hPa | 0 mm | - | - | - |
| 1787593283 | 33.89° C | 64% | 1017.1 hPa | 0 mm | - | - | - |
| 1787592978 | 34.44° C | 64% | 1017.4 hPa | 0 mm | - | - | - |
| 1787592673 | 34.44° C | 63% | 1017.6 hPa | 0 mm | - | - | - |
| 1787592372 | 33.89° C | 62% | 1017.4 hPa | 0 mm | - | - | - |
| 1787592063 | 33.33° C | 63% | 1017.6 hPa | 0 mm | - | - | - |
| 1787591763 | 33.33° C | 65% | 1017.4 hPa | 0 mm | - | - | - |
| 1787591453 | 33.33° C | 65% | 1017.2 hPa | 0 mm | - | - | - |
| 1787591149 | 33.33° C | 67% | 1017.4 hPa | 0 mm | - | - | - |
| 1787590845 | 33.33° C | 65% | 1017.3 hPa | 0 mm | - | - | - |
| 1787590539 | 33.89° C | 62% | 1017.5 hPa | 0 mm | - | - | - |
| 1787590235 | 33.33° C | 64% | 1017.5 hPa | 0 mm | - | - | - |
| 1787589930 | 33.33° C | 63% | 1017.4 hPa | 0 mm | - | - | - |
| 1787589626 | 33.33° C | 62% | 1017.4 hPa | 0 mm | - | - | - |
| 1787589325 | 33.89° C | 64% | 1017.5 hPa | 0 mm | - | - | - |
| 1787589022 | 34.44° C | 62% | 1017.4 hPa | 0 mm | - | - | - |
| 1787588717 | 33.33° C | 68% | 1017.5 hPa | 0 mm | - | - | - |
| 1787588413 | 33.33° C | 62% | 1017.6 hPa | 0 mm | - | - | - |
| 1787588108 | 33.33° C | 63% | 1017.7 hPa | 0 mm | - | - | - |
| 1787587804 | 33.33° C | 65% | 1017.6 hPa | 0 mm | - | - | - |
| 1787587503 | 32.78° C | 63% | 1017.7 hPa | 0 mm | - | - | - |
| 1787587203 | 32.22° C | 70% | 1017.9 hPa | 0 mm | - | - | - |
* Rain latest hour (hover to see other rain measurements)
** Current wind speed in m/s (hover to see current wind gust speed)